TimeEST,TemperatureF,Dew PointF,Humidity,Sea Level PressureIn,VisibilityMPH,Wind Direction,Wind SpeedMPH,Gust SpeedMPH,PrecipitationIn,Events,Conditions,WindDirDegrees,DateUTC
12:55 AM,64.0,50.5,61,30.13,10.0,NNW,13.8,-,N/A,,Clear,340,2012-12-30 05:55:00
1:55 AM,59.7,48.9,67,30.15,10.0,NNW,13.8,-,N/A,,Clear,340,2012-12-30 06:55:00
2:55 AM,57.4,50.2,77,30.16,10.0,NNW,13.8,-,N/A,,Clear,340,2012-12-30 07:55:00
3:55 AM,55.8,49.5,79,30.17,10.0,NNW,10.4,-,N/A,,Clear,340,2012-12-30 08:55:00
4:55 AM,54.0,48.4,81,30.18,10.0,NNW,8.1,-,N/A,,Clear,340,2012-12-30 09:55:00
5:55 AM,53.6,46.6,77,30.19,10.0,North,9.2,-,N/A,,Clear,350,2012-12-30 10:55:00
6:55 AM,53.2,47.3,80,30.21,10.0,North,10.4,-,N/A,,Clear,360,2012-12-30 11:55:00
7:55 AM,53.1,46.4,78,30.24,10.0,North,16.1,-,N/A,,Clear,350,2012-12-30 12:55:00
8:55 AM,54.7,43.5,66,30.25,10.0,North,17.3,-,N/A,,Clear,360,2012-12-30 13:55:00
9:55 AM,57.2,46.0,66,30.28,10.0,North,15.0,-,N/A,,Clear,10,2012-12-30 14:55:00
10:55 AM,60.4,48.2,64,30.27,10.0,North,12.7,-,N/A,,Clear,10,2012-12-30 15:55:00
11:55 AM,64.4,50.0,59,30.26,10.0,North,11.5,-,N/A,,Clear,10,2012-12-30 16:55:00
12:55 PM,66.2,51.3,59,30.23,10.0,NNE,12.7,-,N/A,,Clear,20,2012-12-30 17:55:00
1:55 PM,68.4,52.7,57,30.22,10.0,NNE,16.1,-,N/A,,Clear,30,2012-12-30 18:55:00
2:55 PM,70.0,55.0,59,30.21,10.0,NNE,18.4,26.5,N/A,,Partly Cloudy,30,2012-12-30 19:55:00
3:55 PM,68.5,55.6,63,30.22,10.0,NE,13.8,-,N/A,,Overcast,40,2012-12-30 20:55:00
4:55 PM,68.0,54.3,62,30.23,10.0,NNE,18.4,-,N/A,,Mostly Cloudy,30,2012-12-30 21:55:00
5:55 PM,67.5,54.3,63,30.25,10.0,NNE,12.7,-,N/A,,Overcast,30,2012-12-30 22:55:00
6:55 PM,67.3,55.8,66,30.26,10.0,NE,17.3,23.0,N/A,,Mostly Cloudy,50,2012-12-30 23:55:00
7:55 PM,66.4,54.5,66,30.27,10.0,NE,13.8,-,N/A,,Scattered Clouds,50,2012-12-31 00:55:00
8:55 PM,66.6,55.6,68,30.28,10.0,ENE,12.7,-,N/A,,Mostly Cloudy,60,2012-12-31 01:55:00
9:55 PM,66.2,54.3,65,30.28,10.0,NE,12.7,-,N/A,,Mostly Cloudy,50,2012-12-31 02:55:00
10:55 PM,66.9,54.9,65,30.28,10.0,ENE,16.1,24.2,N/A,,Mostly Cloudy,60,2012-12-31 03:55:00
11:55 PM,66.2,55.0,67,30.27,10.0,ENE,10.4,-,N/A,,Mostly Cloudy,70,2012-12-31 04:55:00